Location: Newark
(54.3386°S, 169.8415°W)
Time: 08:47:52
(UTC+00:00)

Transit 2A Rocket - All Passes

Search period start: 23 October 2019 00:00
Search period end: 02 November 2019 00:00
Orbit: 594 x 909 km, 66.7° (Epoch: 22 October)

Date Brightness Start Highest point End Pass type
(mag) Time Alt. Az. Time Alt. Az. Time Alt. Az.
23 Oct - 02:16:42 10° NE 02:19:35 15° ENE 02:22:36 10° ESE daylight
23 Oct - 03:55:41 10° NNW 04:01:04 64° NE 04:06:57 10° SE daylight
23 Oct - 05:38:42 10° WNW 05:44:04 43° SSW 05:49:50 10° SE daylight
23 Oct - 07:23:20 10° WSW 07:28:12 26° S 07:33:16 10° SE visible
23 Oct - 09:07:21 10° SW 09:12:36 30° SSE 09:17:58 10° ESE visible
23 Oct - 10:50:16 10° SW 10:56:21 64° SE 11:02:26 10° ENE visible
23 Oct - 12:33:13 10° SW 12:38:53 40° WNW 12:44:27 10° N visible
24 Oct - 03:13:33 10° N 03:18:40 44° ENE 03:24:15 10° SE daylight
24 Oct - 04:55:48 10° WNW 05:01:17 55° SW 05:07:14 10° SE daylight
24 Oct - 06:40:13 10° WSW 06:45:10 28° SSW 06:50:23 10° SE daylight
24 Oct - 08:24:33 10° SW 08:29:37 27° SSE 08:34:47 10° ESE visible
24 Oct - 10:07:41 10° SW 10:13:37 49° SE 10:19:33 10° ENE visible
24 Oct - 11:50:30 10° SW 11:56:30 57° WNW 12:02:26 10° NNE visible
24 Oct - 13:35:03 10° WSW 13:37:59 14° WNW 13:40:54 10° NW visible
25 Oct - 02:31:45 10° N 02:36:25 30° ENE 02:41:24 10° SE daylight
25 Oct - 04:13:02 10° NW 04:18:36 74° SW 04:24:38 10° SE daylight
25 Oct - 05:57:04 10° W 06:02:11 32° SSW 06:07:36 10° SE daylight
25 Oct - 07:41:39 10° SW 07:46:34 26° S 07:51:37 10° ESE visible
25 Oct - 09:25:05 10° SW 09:30:47 39° SSE 09:36:32 10° E visible
25 Oct - 11:07:51 10° SW 11:14:01 80° NW 11:20:07 10° NNE visible
25 Oct - 12:51:27 10° WSW 12:55:54 21° WNW 13:00:17 10° NNW visible
26 Oct - 01:50:25 10° NNE 01:54:15 20° ENE 01:58:18 10° ESE daylight
26 Oct - 03:30:30 10° NW 03:36:01 81° NE 03:42:02 10° SE daylight
26 Oct - 05:13:59 10° W 05:19:16 37° SSW 05:24:55 10° SE daylight
26 Oct - 06:58:39 10° WSW 07:03:31 25° S 07:08:33 10° SE visible
26 Oct - 08:42:26 10° SW 08:47:53 33° SSE 08:53:24 10° E visible
26 Oct - 10:25:16 10° SW 10:31:26 77° SE 10:37:33 10° NE visible
26 Oct - 12:08:24 10° SW 12:13:43 31° WNW 12:18:55 10° N visible
27 Oct - 01:09:58 10° NE 01:12:12 12° E 01:14:30 10° ESE daylight
27 Oct - 02:48:11 10° NNW 02:53:32 57° ENE 02:59:23 10° SE daylight
27 Oct - 04:30:58 10° WNW 04:36:25 47° SW 04:42:16 10° SE daylight
27 Oct - 06:15:33 10° WSW 06:20:28 27° S 06:25:35 10° SE daylight
27 Oct - 07:59:42 10° SW 08:04:54 29° SSE 08:10:13 10° ESE visible
27 Oct - 09:42:41 10° SW 09:48:45 58° SE 09:54:47 10° ENE visible
27 Oct - 11:25:36 10° SW 11:31:24 45° WNW 11:37:07 10° N visible
28 Oct - 02:06:10 10° N 02:11:12 38° ENE 02:16:38 10° SE daylight
28 Oct - 03:48:06 10° WNW 03:53:40 61° SW 03:59:40 10° SE daylight
28 Oct - 05:32:24 10° WSW 05:37:28 29° SSW 05:42:45 10° SE daylight
28 Oct - 07:16:52 10° SW 07:21:54 26° S 07:27:01 10° ESE visible
28 Oct - 09:00:07 10° SW 09:05:59 45° SSE 09:11:52 10° ENE visible
28 Oct - 10:42:55 10° SW 10:49:00 64° NW 10:54:59 10° NNE visible
28 Oct - 12:27:02 10° WSW 12:30:36 16° WNW 12:34:08 10° NW visible
29 Oct - 01:24:30 10° NNE 01:28:58 26° ENE 01:33:43 10° ESE daylight
29 Oct - 03:05:26 10° NW 03:11:01 82° SW 03:17:05 10° SE daylight
29 Oct - 04:49:17 10° W 04:54:30 33° SSW 05:00:01 10° SE daylight
29 Oct - 06:33:56 10° SW 06:38:51 25° S 06:43:54 10° ESE daylight
29 Oct - 08:17:30 10° SW 08:23:08 37° SSE 08:28:48 10° E visible
29 Oct - 10:00:17 10° SW 10:06:29 88° NW 10:12:34 10° NE visible
29 Oct - 11:43:42 10° WSW 11:48:29 24° WNW 11:53:12 10° NNW visible
30 Oct - 00:43:22 10° NE 00:46:51 17° ENE 00:50:29 10° ESE daylight
30 Oct - 02:22:57 10° NNW 02:28:28 72° NE 02:34:28 10° SE daylight
30 Oct - 04:06:12 10° W 04:11:36 40° SSW 04:17:20 10° SE daylight
30 Oct - 05:50:53 10° WSW 05:55:48 26° S 06:00:52 10° SE daylight
30 Oct - 07:34:49 10° SW 07:40:11 31° SSE 07:45:38 10° E visible
30 Oct - 09:17:42 10° SW 09:23:52 70° SE 09:29:57 10° NE visible
30 Oct - 11:00:45 10° SW 11:06:16 35° WNW 11:11:39 10° N visible
31 Oct - 00:03:45 10° ENE 00:04:50 11° E 00:05:56 10° E daylight
31 Oct - 01:40:44 10° NNW 01:46:02 50° ENE 01:51:47 10° SE daylight
31 Oct - 03:23:16 10° WNW 03:28:47 51° SW 03:34:43 10° SE daylight
31 Oct - 05:07:47 10° WSW 05:12:46 27° SSW 05:17:57 10° SE daylight
31 Oct - 06:52:03 10° SW 06:57:12 28° SSE 07:02:26 10° ESE daylight
31 Oct - 08:35:08 10° SW 08:41:09 53° SE 08:47:08 10° ENE visible
31 Oct - 10:17:59 10° SW 10:23:55 51° WNW 10:29:44 10° NNE visible
31 Oct - 12:03:11 10° W 12:05:16 12° W 12:07:20 10° WNW visible
01 Nov - 00:58:49 10° N 01:03:44 34° ENE 01:09:00 10° SE daylight
01 Nov - 02:40:27 10° NW 02:46:04 68° SW 02:52:08 10° SE daylight
01 Nov - 04:24:37 10° W 04:29:46 30° SSW 04:35:08 10° SE daylight
01 Nov - 06:09:10 10° SW 06:14:10 26° S 06:19:16 10° ESE daylight
01 Nov - 07:52:32 10° SW 07:58:20 42° SSE 08:04:08 10° ENE visible
01 Nov - 09:35:19 10° SW 09:41:29 72° NW 09:47:29 10° NNE visible
01 Nov - 11:19:09 10° WSW 11:23:13 19° WNW 11:27:12 10° NNW visible
